Zacatecas Airport, Mexico

3:10 PM CDT on April 23, 2018 (GMT -0500)
Gen Leobardo C Ruiz International

Weather History for MMZC - October, 2011

Change the Weather History Date:

Tuesday, October 25, 2011

  Actual Average Record
Temperature  
Mean Temperature 55 °F -  
Max Temperature 75 °F 71 °F 82 °F (2010)
Min Temperature 35 °F 42 °F 30 °F (2007)
Degree Days  
Heating Degree Days 10    
Growing Degree Days 5 (Base 50)    
Moisture  
Dew Point 25 °F    
Average Humidity 33    
Maximum Humidity 65    
Minimum Humidity 14    
Precipitation  
Precipitation 0.00 in - - ()
Sea Level Pressure  
Sea Level Pressure 30.33 in    
Wind  
Wind Speed 6 mph ()    
Max Wind Speed 13 mph    
Max Gust Speed -    
Visibility 10.0 miles    
Events      
Averages and records for this station are not official NWS values.
T = Trace of Precipitation, MM = Missing Value Source: Averaged Metar Reports

Daily Weather History Graph

Daily Weather History Graph

Search for Another Location

Airport or City:

Astronomy

Oct. 25, 2011 Rise Set
Actual Time 7:51 AM CDT 7:17 PM CDT
Civil Twilight 7:28 AM CDT 7:40 PM CDT
Nautical Twilight 7:02 AM CDT 8:06 PM CDT
Astronomical Twilight 6:36 AM CDT 8:32 PM CDT
Moon 6:30 AM CDT (10/25) 6:20 PM CDT (10/25)
Length of Visible Light 12h 11m
Length of Day
11h 25m
Waning Crescent, 2% of the Moon is Illuminated
Oct 25
Waning Crescent
Oct 26
New
Nov 2
First Quarter
Nov 10
Full
Nov 18
Last Quarter

Hourly Weather History & Observations

Time (CDT) Temp. Windchill Dew Point Humidity Pressure Visibility Wind Dir Wind Speed Gust Speed Precip Events Conditions
1:40 AM 48.2 °F - 30.2 °F 50% 30.38 in 10.0 mi ESE 8.1 mph - N/A   Clear
2:40 AM 50.0 °F - 28.4 °F 43% 30.37 in 10.0 mi SSE 9.2 mph - N/A   Clear
3:40 AM 44.6 °F 42.2 °F 26.6 °F 49% 30.35 in 10.0 mi SSW 4.6 mph - N/A   Clear
4:40 AM 44.6 °F 40.7 °F 26.6 °F 49% 30.36 in 10.0 mi South 6.9 mph - N/A   Clear
5:40 AM 35.6 °F 29.9 °F 24.8 °F 65% 30.35 in 10.0 mi South 6.9 mph - N/A   Clear
6:43 AM 42.8 °F 38.6 °F 23.0 °F 46% 30.36 in 10.0 mi SSW 6.9 mph - N/A   Clear
7:41 AM 39.2 °F 33.0 °F 23.0 °F 52% 30.37 in 10.0 mi South 9.2 mph - N/A   Clear
8:41 AM 46.4 °F 43.5 °F 23.0 °F 40% 30.38 in 10.0 mi South 5.8 mph - N/A   Clear
9:41 AM 53.6 °F - 26.6 °F 35% 30.40 in 10.0 mi SSW 5.8 mph - N/A   Clear
10:41 AM 60.8 °F - 28.4 °F 29% 30.41 in 10.0 mi East 3.5 mph - N/A   Clear
11:41 AM 66.2 °F - 26.6 °F 23% 30.40 in 10.0 mi SSE 5.8 mph - N/A   Clear
12:41 PM 71.6 °F - 19.4 °F 14% 30.38 in 10.0 mi SE 8.1 mph - N/A   Clear
1:41 PM 73.4 °F - 21.2 °F 14% 30.35 in 10.0 mi NE 11.5 mph - N/A   Clear
2:41 PM 73.4 °F - 23.0 °F 15% 30.32 in 10.0 mi NE 10.4 mph - N/A   Clear
3:41 PM 75.2 °F - 23.0 °F 14% 30.29 in 10.0 mi ENE 9.2 mph - N/A   Clear
4:41 PM 75.2 °F - 23.0 °F 14% 30.28 in 10.0 mi NE 12.7 mph - N/A   Clear
5:40 PM 73.4 °F - 23.0 °F 15% 30.25 in 10.0 mi East 11.5 mph - N/A   Clear
6:41 PM 71.6 °F - 23.0 °F 16% 30.25 in 10.0 mi NE 6.9 mph - N/A   Clear
7:41 PM 62.6 °F - 24.8 °F 24% 30.26 in 10.0 mi NE 4.6 mph - N/A   Clear
8:41 PM 57.2 °F - 26.6 °F 31% 30.28 in 10.0 mi East 6.9 mph - N/A   Clear
9:41 PM 51.8 °F - 26.6 °F 38% 30.28 in 10.0 mi SSW 5.8 mph - N/A   Clear
10:41 PM 51.8 °F - 24.8 °F 35% 30.29 in 10.0 mi Calm Calm - N/A   Clear
11:40 PM 44.6 °F - 26.6 °F 49% 30.30 in 10.0 mi Calm Calm - N/A   Clear